DateTimeUTC,F1_A11,F1_S11,BsB_S11,BsG_S11,BsR_S11,BbsB_S11,BbsG_S11,BbsR_S11,BaB_A11,BaG_A11,BaR_A11,Tu_S11,T_S11,Uu_S11,U_S11,P_S11,T1_A11
2021-09-25T04:00:00Z,00000200,21000000,,,,,,,0000.12,-000.22,0000.13,16.1,23.3,,00.0,0666.2,30.8
2021-09-25T04:01:00Z,00000200,21000000,,,,,,,0000.31,0000.37,-000.05,16.1,23.3,,00.0,0666.2,30.8
2021-09-25T04:02:00Z,00000200,21000000,,,,,,,-000.13,-000.09,0000.21,16.2,23.4,,00.0,0666.2,30.8
2021-09-25T04:03:00Z,00000200,61000000,,,,,,,0000.22,0000.57,-000.03,16.2,23.4,,00.0,0666.2,30.8
2021-09-25T04:04:00Z,00000200,41000000,0001.30,0000.57,0000.38,0000.46,0000.03,0000.08,0000.37,0000.13,-000.11,16.6,23.3,,00.0,0667.1,30.8
2021-09-25T04:05:00Z,00000200,01000000,0000.65,0000.01,0000.20,0000.23,0000.29,0000.01,0000.20,-000.35,0000.29,16.6,23.2,,00.0,0667.2,30.8
2021-09-25T04:06:00Z,00000200,01000000,0000.81,0000.70,0000.46,-000.31,0000.11,0000.09,-000.05,0000.18,0000.02,16.6,23.2,,00.0,0667.2,30.8
2021-09-25T04:07:00Z,00000200,01000000,0000.02,0000.20,0000.03,-000.24,0000.25,-000.04,0000.36,0000.33,-000.19,16.5,23.2,,00.0,0667.1,30.8
2021-09-25T04:08:00Z,00000200,01000000,0000.55,0000.94,0000.36,0000.33,-000.09,0000.12,-000.06,-000.02,0000.17,16.4,23.2,,00.0,0667.1,30.8
2021-09-25T04:09:00Z,00000200,01000000,0000.19,0000.83,0000.04,0000.27,0000.01,0000.06,0000.39,0000.07,0000.08,16.4,23.1,,00.0,0667.1,30.8
2021-09-25T04:10:00Z,00000200,01000000,0001.05,0000.87,0000.45,0000.01,0000.20,0000.26,0000.22,0000.36,0000.13,16.3,23.1,,00.0,0667.1,30.8
2021-09-25T04:11:00Z,00000200,01000000,0000.78,0000.38,0000.56,0000.34,-000.18,0000.30,0000.01,0000.43,0000.39,16.3,23.0,,00.0,0667.1,30.8
2021-09-25T04:12:00Z,00000200,01000000,0000.17,0000.44,0000.45,0000.29,0000.19,0000.14,0000.55,-000.05,0000.40,16.3,23.0,,00.0,0667.1,30.8
2021-09-25T04:13:00Z,00000200,01000000,0000.46,0000.63,0000.47,0000.54,0000.00,0000.35,0000.35,0000.71,0000.25,16.3,23.0,,00.0,0667.1,30.8
2021-09-25T04:14:00Z,00000200,01000000,-000.02,0000.55,0000.57,0000.11,0000.20,0000.35,0000.35,0000.15,0000.15,16.3,23.0,,00.0,0667.1,30.8
2021-09-25T04:15:00Z,00000200,01000000,0000.30,0000.80,0000.51,0001.01,0000.00,-000.06,0000.27,0000.38,0000.53,16.4,23.0,,00.0,0667.1,30.8
2021-09-25T04:16:00Z,00000200,01000000,0000.41,0000.79,0000.62,-000.03,0000.29,0000.21,0000.31,0000.51,0000.13,16.5,23.1,,00.0,0667.2,30.8
2021-09-25T04:17:00Z,00000200,01000000,0000.49,0000.50,0000.31,0000.77,0000.08,0000.19,0000.50,0000.11,-000.01,16.5,23.1,,00.0,0667.2,30.8
2021-09-25T04:18:00Z,00000200,01000000,0001.01,0000.95,0000.65,0000.61,0000.07,-000.17,0000.11,0000.02,0000.02,16.6,23.1,,00.0,0667.2,30.8
2021-09-25T04:19:00Z,00000200,01000000,0000.52,0000.28,0000.24,0000.26,-000.02,0000.12,0000.14,0000.32,0000.09,16.6,23.1,,00.0,0667.2,30.8
2021-09-25T04:20:00Z,00000200,01000000,0001.06,0000.85,0000.53,0000.37,0000.14,0000.17,0000.17,0000.02,0000.13,16.6,23.1,,00.0,0667.2,30.8
2021-09-25T04:21:00Z,00000200,01000000,0000.63,0000.40,0000.44,0000.61,0000.00,-000.21,-000.07,-000.02,-000.07,16.6,23.1,,00.0,0667.2,30.8
2021-09-25T04:22:00Z,00000200,01000000,0000.55,0000.54,0000.48,0000.28,0000.18,0000.07,0000.30,-000.16,-000.08,16.5,23.1,,00.0,0667.2,30.8
2021-09-25T04:23:00Z,00000200,01000000,0000.14,0000.55,0000.19,0000.35,-000.02,-000.34,-000.00,0000.17,0000.24,16.4,23.1,,00.0,0667.2,30.8
2021-09-25T04:24:00Z,00000200,01000000,0000.10,0000.68,0000.78,0000.06,0000.10,0000.18,0000.21,0000.15,-000.10,16.4,23.0,,00.0,0667.1,30.8
2021-09-25T04:25:00Z,00000200,01000000,0000.78,0000.80,0000.29,0000.66,0000.38,0000.12,-000.05,0000.13,0000.18,16.3,23.0,,00.0,0667.1,30.8
2021-09-25T04:26:00Z,00000200,01000000,0000.96,0000.44,0000.46,0000.14,0000.20,0000.24,0000.45,0000.40,0000.28,16.2,23.0,,00.0,0667.1,30.8
2021-09-25T04:27:00Z,00000200,01000000,0001.39,0000.48,0000.66,-000.05,0000.28,0000.17,0000.40,0000.13,0000.55,16.2,22.9,,00.0,0667.1,30.8
2021-09-25T04:28:00Z,00000200,01000000,0000.72,0001.06,0000.36,0000.23,-000.08,-000.14,0000.20,0000.28,-000.03,16.2,22.9,,00.0,0667.1,30.8
2021-09-25T04:29:00Z,00000200,01000000,0000.48,0000.56,0000.44,0000.34,-000.02,0000.11,0000.44,0000.53,0000.21,16.3,22.9,,00.0,0667.1,30.8
2021-09-25T04:30:00Z,00000200,01000000,0000.65,0000.53,0000.65,-000.04,-000.04,0000.18,0000.53,0000.45,0000.34,16.4,23.0,,00.0,0667.2,30.8
2021-09-25T04:31:00Z,00000200,01000000,0000.76,0000.49,0000.44,0000.41,-000.07,0000.16,0000.11,0000.13,0000.45,16.4,23.0,,00.0,0667.2,30.8
2021-09-25T04:32:00Z,00000200,01000000,0000.97,0000.66,0000.45,0000.53,0000.17,0000.24,0000.32,0000.15,0000.06,16.5,23.0,,00.0,0667.2,30.8
2021-09-25T04:33:00Z,00000200,01000000,0001.20,0000.63,0000.18,0000.45,-000.14,0000.20,0000.22,0000.43,-000.07,16.6,23.0,,00.0,0667.2,30.8
2021-09-25T04:34:00Z,00000200,01000000,0000.74,0000.67,0000.21,0000.17,0000.05,0000.25,0000.23,0000.30,0000.43,16.6,23.1,,00.0,0667.2,30.9
2021-09-25T04:35:00Z,00000200,01000000,0000.87,0000.87,0000.45,0000.27,0000.00,-000.09,0000.36,0000.20,0000.30,16.7,23.1,,00.0,0667.2,30.9
2021-09-25T04:36:00Z,00000200,01000000,0000.76,0000.58,0000.43,0000.05,0000.14,-000.11,0000.30,0000.31,0000.07,16.8,23.1,,00.0,0667.2,30.9
2021-09-25T04:37:00Z,00000200,01000000,0000.70,0000.35,0000.75,0000.25,-000.07,0000.01,0000.23,0000.01,0000.06,16.8,23.1,,00.0,0667.3,30.9
2021-09-25T04:38:00Z,00000200,01000000,0001.05,0000.69,0000.63,0000.47,0000.17,0000.14,0000.06,0000.16,-000.21,16.7,23.2,,00.0,0667.3,30.8
2021-09-25T04:39:00Z,00000200,01000000,0000.98,0000.78,0000.27,0000.42,0000.30,-000.12,0000.20,0000.28,0000.21,16.7,23.1,,00.0,0667.2,30.8
2021-09-25T04:40:00Z,00000200,01000000,0000.88,0000.86,0000.83,0001.05,0000.10,0000.43,0000.42,-000.01,0000.17,16.6,23.1,,00.0,0667.2,30.8
2021-09-25T04:41:00Z,00000200,01000000,0001.00,0000.75,0000.67,0000.07,0000.01,0000.01,0000.30,0000.21,0000.36,16.5,23.1,,00.0,0667.2,30.8
2021-09-25T04:42:00Z,00000200,01000000,0000.49,0000.60,0000.09,0000.14,0000.14,-000.01,0000.21,0000.32,0000.12,16.5,23.0,,00.0,0667.2,30.8
2021-09-25T04:43:00Z,00000200,01000000,0000.36,0000.74,0000.19,0000.91,0000.23,-000.17,0000.08,0000.54,0000.18,16.5,23.0,,00.0,0667.2,30.8
2021-09-25T04:44:00Z,00000200,01000000,0000.59,0000.60,0000.30,0000.34,0000.32,0000.22,0000.57,0000.38,0000.11,16.6,23.1,,00.0,0667.2,30.8
2021-09-25T04:45:00Z,00000200,01000000,0001.26,0000.66,0000.57,0000.48,0000.03,0000.21,0000.40,-000.11,0000.43,16.6,23.1,,00.0,0667.2,30.8
2021-09-25T04:46:00Z,00000200,01000000,0000.80,0000.64,0000.51,0000.76,-000.01,0000.07,-000.08,0000.23,0000.05,16.7,23.1,,00.0,0667.2,30.8
2021-09-25T04:47:00Z,00000200,01000000,0000.76,0000.95,0000.52,0000.21,0000.23,-000.10,0000.79,0000.67,0000.47,16.8,23.1,,00.0,0667.2,30.8
2021-09-25T04:48:00Z,00000200,01000000,0000.19,0000.65,0000.67,0000.48,0000.11,0000.08,-000.11,0000.08,0000.01,16.8,23.2,,00.0,0667.3,30.9
2021-09-25T04:49:00Z,00000200,01000000,0000.37,0000.89,0000.39,0000.62,-000.03,0000.11,0000.24,0000.23,-000.05,16.9,23.2,,00.0,0667.3,30.9
2021-09-25T04:50:00Z,00000200,01000000,0000.51,0000.53,0000.36,0000.77,0000.03,0000.04,0000.10,0000.10,0000.02,16.9,23.2,,00.0,0667.3,30.9
2021-09-25T04:51:00Z,00000200,01000000,0001.56,0000.63,0000.78,0000.46,0000.07,0000.05,-000.02,-000.11,0000.08,16.9,23.2,,00.0,0667.3,30.9
2021-09-25T04:52:00Z,00000200,01000000,0000.28,0000.55,0000.29,0000.33,0000.12,-000.24,0000.19,-000.05,0000.13,16.8,23.2,,00.0,0667.3,30.9
2021-09-25T04:53:00Z,00000200,01000000,0000.40,0000.87,0000.23,0000.33,0000.14,0000.06,0000.37,0000.32,-000.26,16.8,23.2,,00.0,0667.3,30.8
2021-09-25T04:54:00Z,00000200,01000000,0001.37,0000.79,0000.33,0000.59,-000.11,-000.07,-000.04,0000.03,0000.21,16.7,23.2,,00.0,0667.3,30.8
2021-09-25T04:55:00Z,00000200,01000000,0000.75,0000.56,0000.32,0000.25,0000.06,0000.39,0000.16,0000.57,0000.27,16.6,23.1,,00.0,0667.3,30.8
2021-09-25T04:56:00Z,00000200,01000000,0000.74,0000.75,0000.55,0001.31,-000.01,0000.11,0000.81,0000.34,0000.81,16.6,23.1,,00.0,0667.2,30.8
2021-09-25T04:57:00Z,00000200,41000000,,,,,,,-000.54,-000.51,-000.49,16.6,23.1,,00.0,0667.2,30.8
2021-09-25T04:58:00Z,00000200,61000000,,,,,,,0000.16,0000.35,-000.06,16.2,23.2,,00.0,0666.3,30.8
2021-09-25T04:59:00Z,00000200,21000000,,,,,,,0000.23,0000.48,0000.43,16.2,23.3,,00.0,0666.3,30.8
